Flag for Congo Dem.Rep. Weather past 2 weeks in Kinshasa, Congo Dem.Rep.

Now
88 °F

Partly sunny.


Feels Like: 93 °F
Forecast: 72 / 90 °F
Wind: 9 mph from Southwest

Location: Brazzaville / Maya-Maya

Current Time: Oct 1, 2014 at 12:27:02 PM

Latest Report: Oct 1, 2014 at 12:00 PM


Visibility: 5 mi

Pressure: 29.89 "Hg

Humidity: 55%

Dew point: 70 °F

Location of KinshasaLocation

Historic Weather in Kinshasa — Graph

°F

Kinshasa temperature yesterday

Maximum temperature yesterday: 82 °F (at 11:00 AM)
Minimum temperature yesterday: 73 °F (at 7:00 AM)
Average temperature yesterday: 78 °F

Past Weeks' High & Low Weather Summary

 TemperatureHumidityPressure
High93 °F (Sep 19, 3:00 PM)94% (Sep 17, 4:00 AM)30.07 "Hg (Sep 17, 4:00 AM)
Low68 °F (Sep 17, 4:00 AM)39% (Sep 19, 4:00 PM)29.80 "Hg (Sep 19, 4:00 PM)
Average79 °F71%29.94 "Hg
* Reported Sep 16 11:00 AM — Oct 1 11:00 AM, Kinshasa, Weather by CustomWeather, © 2014

Note: Actual official high and low records may vary slightly from our data, if they occured in-between our weather recording intervals... More about our weather records

Advertising

Kinshasa weather history for previous 24 hours

 ConditionsComfort  
Time TempWeatherWind HumidityBarometerVisibility
11:00 AM
Oct 1
86 °FScattered clouds.7 mph59%29.95 "Hg5 mi
10:00 AM84 °FScattered clouds.7 mph58%29.95 "Hg6 mi
9:00 AM81 °FClear.5 mph62%29.95 "Hg6 mi
8:00 AM79 °FClear.7 mph65%29.98 "Hg6 mi
7:00 AM75 °FClear.2 mph74%29.95 "Hg6 mi
6:00 AM73 °FClear.2 mph78%29.95 "Hg6 mi
5:00 AM73 °FClear.5 mph78%29.92 "Hg5 mi
4:00 AM75 °FClear.5 mph69%29.92 "Hg5 mi
3:00 AM75 °FClear.2 mph74%29.95 "Hg5 mi
2:00 AM75 °FClear.5 mph74%29.95 "Hg5 mi
1:00 AM77 °FLight rain. Partly cloudy.5 mph69%29.98 "Hg5 mi
12:00 AM77 °FPassing clouds.12 mph69%30.01 "Hg5 mi
11:00 PM
Sep 30
77 °FClear.7 mph74%30.01 "Hg5 mi
10:00 PM77 °FPassing clouds.No wind79%29.98 "Hg6 mi
9:00 PM77 °FClear.5 mph79%29.98 "Hg6 mi
8:00 PM77 °FClear.5 mph79%29.95 "Hg6 mi
7:00 PM79 °FClear.5 mph74%29.92 "Hg6 mi
6:00 PM81 °FClear.7 mph66%29.89 "Hg6 mi
5:00 PM81 °FPassing clouds.7 mph66%29.89 "Hg6 mi
4:00 PM82 °FPartly sunny.5 mph62%29.89 "Hg6 mi
3:00 PM81 °FLight rain. Partly sunny.7 mph70%29.92 "Hg4 mi
2:00 PM79 °FLight rain. Partly sunny.7 mph70%29.92 "Hg4 mi
1:00 PM82 °FBroken clouds.No wind62%29.95 "HgN/A
12:00 PM82 °FPartly sunny.5 mph62%29.98 "Hg5 mi
Weather by CustomWeather, © 2014

See weather overviewHow to use our weather pages